Location: Shenandoah County Park
(38.9356°N, 78.4524°W)
Time: 10:56:49
(UTC-04:00)

Vanguard 1 Rocket - Pass Details

Date: 10 February 2023
Orbit: 652 x 4223 km, 34.3° (Epoch: 24 March)

Event Time Altitude Azimuth Distance (km) Brightness Sun altitude
Rises 09:03:39 0° 207° (SSW) 3,222 10.4 18.5°
Reaches altitude 10° 09:06:10 10° 191° (S) 2,517 10.1 18.9°
Maximum altitude 09:10:46 23° 139° (SE) 2,190 11.8 19.6°
Drops below altitude 10° 09:17:38 10° 91° (E) 3,899 11.6 20.7°
Sets 09:22:45 0° 80° (E) 5,558 12.0 21.4°
